Location: Darmstadt
(49.8706°N, 8.6494°E)
Time: 05:55:47
(UTC+01:00)

FALCON 9 DEB - Pass Details

Date: 31 October 2020
Orbit: 381 x 399 km, 53.0° (Epoch: 03 December)

Event Time Altitude Azimuth Distance (km) Brightness Sun altitude
Rises 19:01:48 0° 274° (W) 2,322 8.5 -19.5°
Reaches altitude 10° 19:03:56 10° 280° (W) 1,460 7.0 -19.8°
Enters shadow 19:07:01 46° 350° (N) 549 3.6 -20.3°
